TimePDT,TemperatureF,Dew PointF,Humidity,Sea Level PressureIn,VisibilityMPH,Wind Direction,Wind SpeedMPH,Gust SpeedMPH,PrecipitationIn,Events,Conditions,WindDirDegrees,DateUTC
12:53 AM,66.9,44.1,44,29.86,10.0,Calm,Calm,-,N/A,,Clear,0,2013-10-13 07:53:00
1:53 AM,64.0,45.0,50,29.85,10.0,SW,3.5,-,N/A,,Clear,220,2013-10-13 08:53:00
2:53 AM,62.1,46.0,56,29.84,10.0,South,3.5,-,N/A,,Clear,190,2013-10-13 09:53:00
3:53 AM,64.0,45.0,50,29.83,10.0,Calm,Calm,-,N/A,,Clear,0,2013-10-13 10:53:00
4:53 AM,59.0,46.0,62,29.83,10.0,South,3.5,-,N/A,,Clear,190,2013-10-13 11:53:00
5:53 AM,62.1,45.0,53,29.84,10.0,Calm,Calm,-,N/A,,Clear,0,2013-10-13 12:53:00
6:53 AM,57.9,45.0,62,29.86,10.0,Calm,Calm,-,N/A,,Clear,0,2013-10-13 13:53:00
7:53 AM,63.0,45.0,52,29.88,10.0,Calm,Calm,-,N/A,,Clear,0,2013-10-13 14:53:00
8:53 AM,68.0,45.0,43,29.89,10.0,Calm,Calm,-,N/A,,Clear,0,2013-10-13 15:53:00
9:53 AM,73.0,43.0,34,29.90,10.0,SSE,6.9,-,N/A,,Clear,160,2013-10-13 16:53:00
10:53 AM,75.9,39.0,26,29.90,10.0,East,6.9,-,N/A,,Clear,100,2013-10-13 17:53:00
11:53 AM,78.1,37.9,24,29.89,10.0,ESE,5.8,-,N/A,,Clear,110,2013-10-13 18:53:00
12:53 PM,79.0,34.0,20,29.88,10.0,SE,4.6,-,N/A,,Clear,130,2013-10-13 19:53:00
1:53 PM,81.0,33.1,18,29.85,10.0,Calm,Calm,-,N/A,,Clear,0,2013-10-13 20:53:00
2:53 PM,82.0,33.1,17,29.84,10.0,Calm,Calm,-,N/A,,Clear,0,2013-10-13 21:53:00
3:53 PM,82.9,34.0,17,29.83,10.0,Variable,3.5,-,N/A,,Clear,0,2013-10-13 22:53:00
4:53 PM,82.0,34.0,18,29.84,10.0,WNW,5.8,-,N/A,,Clear,300,2013-10-13 23:53:00
5:53 PM,79.0,42.1,27,29.86,10.0,NW,15.0,-,N/A,,Clear,320,2013-10-14 00:53:00
6:53 PM,77.0,37.0,24,29.88,10.0,NW,18.4,26.5,N/A,,Clear,320,2013-10-14 01:53:00
7:53 PM,75.0,39.9,28,29.89,10.0,NW,12.7,-,N/A,,Clear,310,2013-10-14 02:53:00
8:53 PM,73.0,45.0,37,29.92,10.0,NW,12.7,-,N/A,,Clear,310,2013-10-14 03:53:00
9:53 PM,71.1,46.0,41,29.94,10.0,NW,11.5,19.6,N/A,,Clear,310,2013-10-14 04:53:00
10:53 PM,70.0,46.0,42,29.96,10.0,NW,6.9,-,N/A,,Clear,320,2013-10-14 05:53:00
11:53 PM,68.0,46.9,47,29.97,10.0,NW,11.5,-,N/A,,Clear,310,2013-10-14 06:53:00